Location: Asheville, NC
(35.6000°N, 82.5500°W)
Time: 14:36:20
(UTC-04:00)

N. Korean satellite - Pass Details

Date: 10 December 2017
Orbit: 459 x 513 km, 97.2° (Epoch: 20 April)

Event Time Altitude Azimuth Distance (km) Brightness Sun altitude
Rises 17:55:33 0° 144° (SE) 2,565 10.1 -7.9°
Reaches altitude 10° 17:57:47 10° 132° (SE) 1,697 9.1 -8.3°
Maximum altitude 18:00:56 28° 72° (ENE) 980 7.5 -8.9°
Drops below altitude 10° 18:04:08 10° 13° (NNE) 1,730 9.0 -9.5°
Sets 18:06:27 0° 2° (N) 2,626 10.1 -9.9°
